This is the latest recevied weather packets stored in our database for station/object LU4DRH-11. If no packets are shown the sender has not sent any weather packets the latest 10 day(s).
| Time | Temp. | Humidity | Pressure | Rain* | Wind** | Luminosity | Snow |
|---|---|---|---|---|---|---|---|
| 1788141603 | 51° F | 74% | 758.2 mmHg | 0.01 in | - | - | - |
| 1788141003 | 51° F | 74% | 758.2 mmHg | 0.01 in | - | - | - |
| 1788140402 | 53° F | 71% | 758.3 mmHg | 0.01 in | - | - | - |
| 1788139803 | 53° F | 69% | 758.3 mmHg | 0.01 in | - | - | - |
| 1788139203 | 53° F | 69% | 758.3 mmHg | 0.01 in | - | - | - |
| 1788138603 | 54° F | 68% | 758.3 mmHg | 0.01 in | - | - | - |
| 1788138004 | 54° F | 72% | 758.5 mmHg | 0.01 in | - | - | - |
| 1788137403 | 54° F | 72% | 758.5 mmHg | 0.01 in | - | - | - |
| 1788136802 | 55° F | 70% | 758.4 mmHg | 0.01 in | - | - | - |
| 1788136203 | 55° F | 69% | 758.2 mmHg | 0.01 in | - | - | - |
| 1788135603 | 55° F | 69% | 758.2 mmHg | 0.01 in | - | - | - |
| 1788135004 | 56° F | 68% | 758.2 mmHg | 0.01 in | - | - | - |
| 1788134403 | 57° F | 65% | 758.3 mmHg | 0.01 in | - | - | - |
| 1788133803 | 57° F | 65% | 758.3 mmHg | 0.01 in | - | - | - |
| 1788133203 | 57° F | 64% | 758.4 mmHg | 0.01 in | - | - | - |
| 1788132603 | 58° F | 63% | 758.3 mmHg | 0.01 in | - | - | - |
| 1788132002 | 58° F | 63% | 758.3 mmHg | 0.01 in | - | - | - |
| 1788131403 | 58° F | 63% | 758.3 mmHg | 0.01 in | - | - | - |
| 1788130804 | 59° F | 60% | 758.4 mmHg | 0.01 in | - | - | - |
| 1788130203 | 59° F | 60% | 758.4 mmHg | 0.01 in | - | - | - |
| 1788129603 | 60° F | 59% | 758.2 mmHg | 0.01 in | - | - | - |
| 1788129003 | 60° F | 57% | 758.2 mmHg | 0.01 in | - | - | - |
| 1788128403 | 60° F | 57% | 758.2 mmHg | 0.01 in | - | - | - |
| 1788127804 | 61° F | 57% | 758.1 mmHg | 0.01 in | - | - | - |
| 1788127203 | 62° F | 53% | 757.9 mmHg | 0.01 in | - | - | - |
* Rain latest hour (hover to see other rain measurements)
** Current wind speed in m/s (hover to see current wind gust speed)